When you browse on this site, cookies collect data to enhance your experience and personalize the content and advertising you see.
Visit our Privacy Policy to learn more. By continuing to use the site, you agree to this use of cookies and data.
  • în România
  • Lista ţărilor
  • Pe 7 zile
  • Temperatura apei
  • Hartă satelitară
  • Meteo pe hartă
  • Widget-uri
  • user-avatar
    Intrare

    Meteo pe oră la Nam Dinh

    Astăzi, 17 Iunie, Luni

    Timp Temperatura Precipitaţii Vânt Presiune Umiditate
    00:00 +33°C° 0 mm 3 m/s 750 mmHg 74%
    01:00 +33°C° 0 mm 3 m/s 750 mmHg 75%
    02:00 +33°C° 0 mm 3 m/s 750 mmHg 76%
    03:00 +31°C° 0 mm 3 m/s 750 mmHg 76%
    04:00 +32°C° 0 mm 4 m/s 750 mmHg 77%
    05:00 +31°C° 0 mm 3 m/s 750 mmHg 76%
    06:00 +33°C° 0 mm 3 m/s 751 mmHg 75%
    07:00 +33°C° 0 mm 4 m/s 751 mmHg 77%
    08:00 +35°C° 0.2 mm 3 m/s 752 mmHg 71%
    09:00 +36°C° 0.2 mm 3 m/s 752 mmHg 64%
    10:00 +38°C° 0.2 mm 3 m/s 752 mmHg 58%
    11:00 +38°C° 0.1 mm 4 m/s 751 mmHg 56%
    12:00 +38°C° 0.1 mm 4 m/s 750 mmHg 55%
    13:00 +40°C° 0.1 mm 5 m/s 750 mmHg 54%
    14:00 +39°C° 0.1 mm 5 m/s 750 mmHg 54%
    15:00 +39°C° 0.1 mm 5 m/s 749 mmHg 55%
    16:00 +37°C° 0.1 mm 5 m/s 749 mmHg 56%
    17:00 +36°C° 0 mm 5 m/s 749 mmHg 61%
    18:00 +35°C° 0 mm 5 m/s 750 mmHg 66%
    19:00 +33°C° 0 mm 4 m/s 750 mmHg 72%
    20:00 +33°C° 0 mm 4 m/s 751 mmHg 74%
    21:00 +33°C° 0 mm 4 m/s 751 mmHg 77%
    22:00 +33°C° 0 mm 4 m/s 752 mmHg 80%
    23:00 +31°C° 1.6 mm 3 m/s 752 mmHg 81%

    Mâine, 18 Iunie, Marţi

    Timp Temperatura Precipitaţii Vânt Presiune Umiditate
    00:00 +31°C° 1.6 mm 3 m/s 752 mmHg 82%
    01:00 +31°C° 1.6 mm 3 m/s 751 mmHg 84%
    02:00 +31°C° 0.3 mm 3 m/s 751 mmHg 84%
    03:00 +31°C° 0.3 mm 2 m/s 751 mmHg 85%
    04:00 +31°C° 0.3 mm 2 m/s 751 mmHg 86%
    05:00 +31°C° 0.8 mm 2 m/s 751 mmHg 84%
    06:00 +31°C° 0.8 mm 2 m/s 751 mmHg 83%
    07:00 +31°C° 0.8 mm 2 m/s 751 mmHg 82%
    08:00 +34°C° 0.5 mm 2 m/s 752 mmHg 76%
    09:00 +35°C° 0.5 mm 2 m/s 752 mmHg 70%
    10:00 +36°C° 0.5 mm 2 m/s 752 mmHg 64%
    11:00 +37°C° 0.1 mm 3 m/s 751 mmHg 61%
    12:00 +38°C° 0.1 mm 3 m/s 751 mmHg 57%
    13:00 +38°C° 0.1 mm 4 m/s 750 mmHg 54%
    14:00 +38°C° 0.3 mm 4 m/s 750 mmHg 56%
    15:00 +37°C° 0.3 mm 5 m/s 750 mmHg 58%
    16:00 +37°C° 0.3 mm 5 m/s 749 mmHg 59%
    17:00 +35°C° 0.1 mm 5 m/s 750 mmHg 64%
    18:00 +34°C° 0.1 mm 4 m/s 750 mmHg 68%
    19:00 +33°C° 0.1 mm 4 m/s 751 mmHg 72%
    20:00 +33°C° 0.1 mm 3 m/s 751 mmHg 75%
    21:00 +32°C° 0.1 mm 2 m/s 751 mmHg 77%
    22:00 +31°C° 0.1 mm 2 m/s 752 mmHg 80%
    23:00 +31°C° 0.1 mm 2 m/s 752 mmHg 80%

    Poimâine, 19 Iunie, Miercuri

    Timp Temperatura Precipitaţii Vânt Presiune Umiditate
    00:00 +31°C° 0.1 mm 2 m/s 751 mmHg 81%
    01:00 +31°C° 0.1 mm 2 m/s 751 mmHg 82%
    02:00 +31°C° 0 mm 2 m/s 751 mmHg 83%
    03:00 +30°C° 0 mm 2 m/s 751 mmHg 84%
    04:00 +30°C° 0 mm 2 m/s 751 mmHg 85%
    05:00 +31°C° 0.1 mm 2 m/s 751 mmHg 83%
    06:00 +31°C° 0.1 mm 3 m/s 751 mmHg 81%
    07:00 +33°C° 0.1 mm 3 m/s 752 mmHg 79%
    08:00 +34°C° 0 mm 3 m/s 752 mmHg 72%
    09:00 +35°C° 0 mm 3 m/s 752 mmHg 66%
    10:00 +37°C° 0 mm 3 m/s 752 mmHg 59%
    11:00 +38°C° 0 mm 3 m/s 751 mmHg 56%
    12:00 +39°C° 0 mm 3 m/s 751 mmHg 53%
    13:00 +40°C° 0 mm 3 m/s 750 mmHg 49%
    14:00 +40°C° 0 mm 4 m/s 750 mmHg 52%
    15:00 +39°C° 0 mm 5 m/s 749 mmHg 56%
    16:00 +37°C° 0 mm 5 m/s 748 mmHg 59%
    17:00 +35°C° 0 mm 5 m/s 749 mmHg 64%
    18:00 +34°C° 0 mm 5 m/s 749 mmHg 69%
    19:00 +33°C° 0 mm 4 m/s 750 mmHg 74%
    20:00 +33°C° 0 mm 4 m/s 750 mmHg 76%
    21:00 +33°C° 0 mm 3 m/s 751 mmHg 77%
    22:00 +31°C° 0 mm 3 m/s 752 mmHg 78%
    23:00 +31°C° 0.2 mm 3 m/s 751 mmHg 79%

    20 Iunie, Joi

    Timp Temperatura Precipitaţii Vânt Presiune Umiditate
    00:00 +32°C° 0.2 mm 4 m/s 751 mmHg 79%
    01:00 +32°C° 0.2 mm 4 m/s 751 mmHg 79%
    02:00 +32°C° 0.1 mm 4 m/s 751 mmHg 80%
    03:00 +32°C° 0.1 mm 4 m/s 751 mmHg 81%
    04:00 +32°C° 0.1 mm 4 m/s 750 mmHg 82%
    05:00 +32°C° 0 mm 4 m/s 751 mmHg 80%
    06:00 +33°C° 0 mm 4 m/s 751 mmHg 78%
    07:00 +33°C° 0 mm 3 m/s 751 mmHg 76%
    08:00 +35°C° 0 mm 3 m/s 751 mmHg 69%
    09:00 +36°C° 0 mm 4 m/s 752 mmHg 62%
    10:00 +38°C° 0 mm 4 m/s 752 mmHg 55%
    11:00 +38°C° 0 mm 4 m/s 751 mmHg 53%
    12:00 +40°C° 0 mm 4 m/s 750 mmHg 51%
    13:00 +41°C° 0 mm 4 m/s 750 mmHg 48%
    14:00 +40°C° 0 mm 5 m/s 749 mmHg 51%
    15:00 +39°C° 0 mm 5 m/s 749 mmHg 54%
    16:00 +38°C° 0 mm 6 m/s 748 mmHg 57%
    17:00 +36°C° 0 mm 5 m/s 749 mmHg 62%
    18:00 +35°C° 0 mm 5 m/s 749 mmHg 66%
    19:00 +33°C° 0 mm 5 m/s 749 mmHg 71%
    20:00 +33°C° 0 mm 5 m/s 750 mmHg 73%
    21:00 +33°C° 0 mm 5 m/s 750 mmHg 75%
    22:00 +33°C° 0 mm 5 m/s 751 mmHg 77%
    23:00 +33°C° 0 mm 5 m/s 751 mmHg 77%

    21 Iunie, Vineri

    Timp Temperatura Precipitaţii Vânt Presiune Umiditate
    00:00 +33°C° 0 mm 6 m/s 750 mmHg 78%
    01:00 +33°C° 0 mm 6 m/s 750 mmHg 78%
    02:00 +33°C° 0 mm 6 m/s 750 mmHg 79%
    03:00 +32°C° 0 mm 6 m/s 750 mmHg 80%
    04:00 +32°C° 0 mm 5 m/s 750 mmHg 81%
    05:00 +33°C° 0 mm 5 m/s 750 mmHg 79%
    06:00 +33°C° 0 mm 5 m/s 750 mmHg 77%
    07:00 +34°C° 0 mm 4 m/s 750 mmHg 75%
    08:00 +35°C° 0 mm 4 m/s 750 mmHg 68%
    09:00 +37°C° 0 mm 3 m/s 750 mmHg 61%
    10:00 +38°C° 0 mm 3 m/s 751 mmHg 54%
    11:00 +40°C° 0 mm 3 m/s 750 mmHg 50%
    12:00 +42°C° 0 mm 3 m/s 749 mmHg 46%
    13:00 +43°C° 0 mm 3 m/s 749 mmHg 42%
    14:00 +42°C° 0 mm 4 m/s 748 mmHg 46%
    15:00 +41°C° 0 mm 5 m/s 748 mmHg 50%
    16:00 +40°C° 0 mm 6 m/s 747 mmHg 54%
    17:00 +38°C° 0 mm 6 m/s 747 mmHg 59%
    18:00 +36°C° 0 mm 5 m/s 748 mmHg 64%
    19:00 +34°C° 0 mm 5 m/s 748 mmHg 69%
    20:00 +34°C° 0 mm 5 m/s 749 mmHg 72%
    21:00 +34°C° 0 mm 5 m/s 749 mmHg 74%
    22:00 +34°C° 0 mm 6 m/s 750 mmHg 77%
    23:00 +33°C° 0 mm 6 m/s 750 mmHg 77%

    22 Iunie, Sâmbătă

    Timp Temperatura Precipitaţii Vânt Presiune Umiditate
    00:00 +33°C° 0 mm 6 m/s 749 mmHg 77%
    01:00 +33°C° 0 mm 6 m/s 749 mmHg 77%
    02:00 +33°C° 0 mm 6 m/s 749 mmHg 78%
    03:00 +33°C° 0 mm 5 m/s 749 mmHg 78%
    04:00 +33°C° 0 mm 5 m/s 748 mmHg 78%
    05:00 +33°C° 0 mm 5 m/s 749 mmHg 77%
    06:00 +33°C° 0 mm 4 m/s 749 mmHg 76%
    07:00 +34°C° 0 mm 4 m/s 749 mmHg 74%
    08:00 +35°C° 0 mm 4 m/s 749 mmHg 68%
    09:00 +37°C° 0 mm 3 m/s 749 mmHg 61%
    10:00 +39°C° 0 mm 3 m/s 750 mmHg 55%
    11:00 +40°C° 0 mm 3 m/s 749 mmHg 51%
    12:00 +42°C° 0 mm 3 m/s 749 mmHg 47%
    13:00 +43°C° 0 mm 3 m/s 748 mmHg 43%
    14:00 +42°C° 0 mm 4 m/s 748 mmHg 47%
    15:00 +41°C° 0 mm 5 m/s 747 mmHg 51%
    16:00 +40°C° 0 mm 6 m/s 747 mmHg 54%
    17:00 +37°C° 0 mm 5 m/s 747 mmHg 60%
    18:00 +36°C° 0 mm 5 m/s 747 mmHg 66%
    19:00 +34°C° 0 mm 5 m/s 748 mmHg 71%
    20:00 +34°C° 0 mm 4 m/s 748 mmHg 73%
    21:00 +34°C° 0 mm 4 m/s 749 mmHg 74%
    22:00 +34°C° 0 mm 4 m/s 750 mmHg 75%
    23:00 +33°C° 0.1 mm 4 m/s 750 mmHg 77%
    Arată mai mult